IRIDIUM 33 DEB

Satellite information

Favourite Embed

Satellite Type and Status

DEBRISIN ORBIT

Key statistics

Satellite IRIDIUM 33 DEB at a glance.

Uptime

10098

Days in orbit

Revolutions

≈ 14.5

Per day

Orbit

LEO

Low Earth Orbit

Inclination

86.1

Latest

Satellite identification and parameters

Extended collection of information and parameters for IRIDIUM 33 DEB.

Object identification

Identified? True

Debris? True

Object name: IRIDIUM 33 DEB

International designator: 1997-051NF

Object number (NORAD): 34926

Object ID (CCSDS): 34926

Country: UNITED STATES OF AMERICA (US)

Current information (Y/N): Y

RCS size: SMALL

Orbital parameters

Period: 99.525 minutes

Inclination: 86.1392 deg

SMA: 7114.036 km

Apoapsis: 800.623 km

Periapsis: 671.179 km

RAAN: 109.0741 deg

Eccentricy: 0.0090978

Argument of periapsis: 303.8947 deg

Mean anomaly: 208.9579 deg

Mean motion: 14.46867155 rev/day

Mean motion (dot): 0.00012483 rev/day2

B* drag term: 0.0032612 1/REarth

Two-line elements (TLE)

Creation date: May 8, 2025, 3:01 a.m.

Reference frame: TEME

Reference center: EARTH

Epoch: May 7, 2025, 9:38 a.m. UTC

TLE line 0: 0 IRIDIUM 33 DEB

TLE line 1: 1 34926U 97051NF 25127.40178537 .00012483 00000-0 32612-2 0 9992

TLE line 2: 2 34926 86.1392 109.0741 0090978 303.8947 208.9579 14.46867155832790

Live tracking on map

Real-time ground track for satellite IRIDIUM 33 DEB.

In-orbit conjunctions

A list of the most updated potential collisions computed for object IRIDIUM 33 DEB.

Target Orbit TCA Probability of collision Miss distance Type
COSMOS 1275 DEB LEO 2025-03-18 02:48:14 0.0001086257 224.0 (m) DEBRIS
IRIDIUM 920 LEO 2025-02-25 20:35:40 0.0001554715 147.0 (m) PAYLOAD
CZ-6A DEB LEO 2025-02-09 17:06:06 0.0003934275 434.0 (m) DEBRIS
CZ-6A DEB SSO 2024-12-26 03:28:35 0.0002274857 49.0 (m) DEBRIS

Associated space launch

Iridium provides global mobile telecommunications services using a constellation of 66 low earth orbit satellites in a 86.4° inclined orbit. Although 77 satellites were originally envisioned for the system and spawned the name based on the 77th element in the periodic table, the system has been scaled back. Motorola's Satellite Communications Group designed and manufactured the Iridium satellites with Lockheed Martin providing the LM-700A spacecraft buses.

IRIDIUM 33 DEB was lifted into orbit during the mission ‘Proton-K/17S40 | Iridium 27 to 33’, on board a Proton-K/17S40 space rocket.

The launch took place on Sept. 14, 1997, 1:36 a.m. from 81/23 (81L).

For more information about the launch, click the button.

Launch to space Proton-K/17S40 | Iridium 27 to 33
Proton-K/17S40 | Iridium 27 to 33

Agency: N/A

Status: Launch Successful

Launch date: Sept. 14, 1997, 1:36 a.m. UTC

Rocket: Proton-K/17S40

Launch pad: 81/23 (81L)

Location: Baikonur Cosmodrome, Republic of Kazakhstan

...

Latest news about this satellite

There are no fresh news available about this satellite. Check back as we update our databases every day.


Newsletter sign-up

Weekly statistics, charts and insights to help you stay on top of the space industry.